User: anonymous   Login
Location: Unspecified
(0.0000°N, 0.0000°E)
Time: 04:19:48
(UTC+00:00)
Language:

STARONE C3 - Orbit

View from above orbital plane
View from above orbital plane
View from above satellite
View from above satellite

Ground track
Ground track

The orbit data is extracted from the following two-line orbital elements,

1 38991U 12062A   18320.41212440 -.00000245  00000-0  00000+0 0  9994
2 38991   0.0227  62.9212 0002265 182.7240 243.1643  1.00271184 22083
Epoch (UTC): 16 November 2018 09:53:27
Eccentricity: 0.0002265
inclination: 0.0227°
perigee height: 35777 km
apogee height: 35796 km
right ascension of ascending node: 62.9212°
argument of perigee: 182.7240°
revolutions per day: 1.00271184
mean anomaly at epoch: 243.1643°
orbit number at epoch: 2208

The dashed part of the orbit path shows where the satellite is in the earth's shadow,  

DLR